Location: Hains Lake
(37.8540°N, 99.8578°W)
Time: 09:30:51
(UTC+00:00)

Tiros 1 despin weight - Pass Details

Date: 21 April 2021
Orbit: 593 x 642 km, 48.2° (Epoch: 07 May)

Event Time Altitude Azimuth Distance (km) Brightness Sun altitude
Rises 17:13:34 0° 302° (WNW) 2,863 ? 58.1°
Reaches altitude 10° 17:15:53 10° 302° (WNW) 1,949 ? 58.4°
Maximum altitude 17:20:21 79° 215° (SW) 612 ? 59.0°
Drops below altitude 10° 17:24:44 10° 130° (SE) 1,919 ? 59.5°
Sets 17:27:00 0° 129° (SE) 2,814 ? 59.8°
